[[{"header":{"parameterUnit":"m.s-1","parameterCategory":1,"la1":30.2991,"la2":30.254,"lo1":-89.0895,"lo2":-89.0444,"dy":0.0017,"dx":0.0017,"nx":28,"ny":28,"refTime":"2025-03-29T03:00:00:Z","depth":0,"parameterNumber":2,"parameterNumberName":"U-component_of_WINDS"},"data":[0,0,0,0,0,0,0,0,0,0,0,0,0,0,0,0,0,0,0,0,0,0,0,0,0,0,0,0,0,0,0,0,0,0,0,0,0,0,0,0,0,0,0,0,0,0,0,0,0,0,0,0,0,0,0,0,0,0,-2.7747,-2.7749,0,-2.7921,-2.7923,-2.7925,-2.7989,-2.7989,-2.7988,-2.7988,-2.8168,-2.8173,-2.8179,0,0,0,0,0,0,0,0,0,0,0,0,0,-2.7474,-2.7479,-2.7747,-2.7749,-2.7751,-2.792,-2.7923,-2.7925,-2.799,-2.7989,-2.7988,-2.7988,-2.8167,-2.8173,-2.8179,0,0,0,0,0,0,0,0,0,0,0,0,0,-2.7615,-2.748,-2.7746,-2.7804,-2.781,-2.792,-2.7923,-2.7926,-2.799,-2.7989,-2.7988,-2.7987,-2.8164,-2.8172,-2.818,-2.8246,0,0,-2.8204,-2.8208,0,0,0,0,0,0,0,0,-2.7607,-2.7625,-2.7793,-2.78,-2.7808,-2.7933,-2.7893,-2.8033,-2.799,-2.7922,-2.7988,-2.7987,-2.8091,-2.8105,-2.8139,-2.8255,-2.8262,-2.8205,-2.821,-2.8213,-2.8216,0,0,0,0,0,0,0,-2.7597,-2.7618,-2.7816,-2.7795,-2.7804,-2.7822,-2.7841,-2.792,-2.8009,-2.7928,-2.7933,-2.7952,-2.8095,-2.8131,-2.8144,-2.8265,-2.8205,-2.8212,-2.8217,-2.822,-2.8445,-2.8446,0,0,0,0,0,0,-2.7577,-2.7609,-2.781,-2.7821,-2.7703,-2.7827,-2.7849,-2.7893,-2.8008,-2.8025,-2.7953,-2.7955,-2.8118,-2.8135,-2.815,-2.8236,-2.8213,-2.8221,-2.8225,-2.8444,-2.8445,-2.8446,0,0,0,0,0,0,-2.7571,-2.7594,-2.7803,-2.7717,-2.7744,-2.7833,-2.7883,-2.7897,-2.7934,-2.8027,-2.8044,-2.7974,-2.8118,-2.8139,-2.8222,-2.8243,-2.8225,-2.8232,-2.8442,-2.8444,-2.8446,-2.8406,0,0,0,0,0,0,-2.7563,-2.7592,-2.7617,-2.7717,-2.7749,-2.787,-2.7884,-2.7901,-2.7947,-2.7951,-2.8051,-2.8067,-2.8119,-2.821,-2.823,-2.8254,-2.8238,-2.8441,-2.8443,-2.8445,-2.8406,-2.8406,-2.8407,0,0,0,0,0,-2.7553,-2.7599,-2.7618,-2.7642,-2.7782,-2.7871,-2.789,-2.7948,-2.7949,-2.7975,-2.8035,-2.8064,-2.8238,-2.8218,-2.8241,-2.8267,-2.844,-2.8443,-2.8445,-2.8406,-2.8406,-2.8407,0,0,0,0,0,0,-2.75,-2.7613,-2.7635,-2.7715,-2.7783,-2.7882,-2.7917,-2.7947,-2.8017,-2.8018,-2.8088,-2.811,-2.8187,-2.8236,-2.8212,-2.8338,-2.8341,-2.8348,-2.8303,-2.8304,-2.8304,-2.8291,-2.8245,0,0,0,0,0,-2.7498,-2.756,-2.7656,-2.7717,-2.775,-2.7828,-2.7869,-2.7908,-2.7982,-2.8011,-2.8078,-2.8149,-2.822,-2.8265,-2.8335,-2.8414,-2.8437,-2.8444,-2.8444,-2.8444,-2.8449,-2.8495,-2.8499,-2.8455,-2.8455,-2.8455,0,0,-2.7494,-2.7563,-2.7598,-2.7708,-2.7766,-2.783,-2.7852,-2.7918,-2.7967,-2.8022,-2.8104,-2.8155,-2.824,-2.832,-2.836,-2.8363,-2.8467,-2.8447,-2.8446,-2.8452,-2.8498,-2.8502,-2.8506,-2.8457,-2.8457,-2.8456,0,0,-2.7518,-2.7577,-2.7634,-2.7692,-2.7778,-2.783,-2.7843,-2.7939,-2.7975,-2.8058,-2.8101,-2.816,-2.8281,-2.8339,-2.8385,-2.8433,-2.8462,-2.8455,-2.8456,-2.85,-2.8503,-2.8507,-2.8524,-2.8529,-2.846,-2.846,-2.846,0,-2.7502,-2.7599,-2.766,-2.7725,-2.7773,-2.7825,-2.7884,-2.7937,-2.8043,-2.8075,-2.8078,-2.8231,-2.8291,-2.8387,-2.8399,-2.8434,-2.8453,-2.8443,-2.8498,-2.8502,-2.8506,-2.8523,-2.8529,-2.8458,-2.8458,-2.8458,-2.8459,0,-2.7575,-2.7642,-2.7678,-2.7778,-2.783,-2.7891,-2.7963,-2.8009,-2.8044,-2.8095,-2.818,-2.8255,-2.8342,-2.8368,-2.8403,-2.8469,-2.8468,-2.8484,-2.8488,-2.8507,-2.8525,-2.8532,-2.8456,-2.8456,-2.8457,-2.8457,0,0,-2.757,-2.7703,-2.7715,-2.7761,-2.7862,-2.7915,-2.798,-2.8064,-2.8102,-2.8174,-2.823,-2.8331,-2.8346,-2.8398,-2.8441,-2.8479,-2.8513,-2.849,-2.8493,-2.8491,-2.8591,-2.8578,-2.8584,-2.8533,-2.8535,-2.8536,-2.8583,0,-2.7607,-2.7723,-2.7781,-2.7873,-2.7936,-2.7988,-2.8045,-2.8113,-2.8163,-2.8225,-2.8282,-2.8352,-2.8367,-2.8398,-2.8439,-2.85,-2.8534,-2.8498,-2.8587,-2.8589,-2.8563,-2.8593,-2.858,-2.862,-2.859,-2.8592,-2.8593,0,-2.7666,-2.7736,-2.7834,-2.7927,-2.7956,-2.8005,-2.8088,-2.8146,-2.8225,-2.8259,-2.8317,-2.8359,-2.8431,-2.843,-2.853,-2.8504,-2.8545,-2.8581,-2.8584,-2.8594,-2.8591,-2.8603,-2.8635,-2.8641,-2.8604,-2.8603,-2.8602,0,-2.7651,-2.7771,-2.7845,-2.7883,-2.7994,-2.8028,-2.8076,-2.8154,-2.8201,-2.8274,-2.8305,-2.8385,-2.8429,-2.8491,-2.8554,-2.8548,-2.8648,-2.8653,-2.8678,-2.8677,-2.8696,-2.8694,-2.8734,-2.8723,-2.8723,-2.8723,-2.8723,0,-2.7687,-2.7744,-2.784,-2.7885,-2.7952,-2.8019,-2.8083,-2.8136,-2.8205,-2.8263,-2.8313,-2.8366,-2.8446,-2.851,-2.856,-2.8635,-2.8655,-2.8685,-2.8698,-2.868,-2.8676,-2.8707,-2.8705,-2.8725,-2.8725,-2.8724,-2.8724,0,-2.7681,-2.7747,-2.7832,-2.793,-2.7956,-2.8001,-2.8086,-2.8132,-2.8186,-2.8258,-2.8279,-2.8363,-2.8441,-2.851,-2.8613,-2.8647,-2.8723,-2.8739,-2.8696,-2.8703,-2.8724,-2.8721,-2.8785,-2.8797,-2.8778,-2.8778,-2.8778,0,-2.7698,-2.7744,-2.7847,-2.7889,-2.7935,-2.8002,-2.805,-2.8119,-2.8167,-2.8261,-2.8297,-2.8378,-2.8446,-2.8568,-2.8639,-2.8719,-2.8737,-2.8754,-2.8749,-2.873,-2.8736,-2.8732,-2.8738,-2.8753,-2.8752,-2.8752,-2.8752,0,-2.7722,-2.7753,-2.782,-2.7899,-2.7955,-2.8021,-2.8088,-2.8119,-2.8201,-2.8253,-2.8332,-2.8385,-2.8491,-2.8571,-2.8658,-2.8709,-2.8745,-2.8753,-2.8764,-2.8746,-2.8718,-2.8733,-2.8694,-2.8751,-2.8751,-2.8752,-2.8752,-2.8752,-2.7729,-2.7772,-2.7851,-2.7924,-2.7982,-2.8044,-2.8093,-2.8152,-2.8219,-2.8309,-2.8346,-2.8427,-2.8507,-2.8628,-2.8679,-2.8744,-2.8751,-2.8765,-2.8769,-2.8771,-2.8768,-2.8709,-2.8761,-2.8761,-2.8761,-2.8761,-2.8761,0,-2.7755,-2.7809,-2.7875,-2.7967,-2.8025,-2.8053,-2.8129,-2.8176,-2.8246,-2.8317,-2.8383,-2.8475,-2.8554,-2.8631,-2.8714,-2.8751,-2.877,-2.8771,-2.8768,-2.878,-2.8758,-2.874,-2.8755,-2.8755,-2.8755,-2.8755,-2.8755,-2.8755,-2.7775,-2.7849,-2.789,-2.7993,-2.8048,-2.8126,-2.8167,-2.8225,-2.8282,-2.8382,-2.8446,-2.8496,-2.8571,-2.8659,-2.8733,-2.8754,-2.8782,-2.8778,-2.8804,-2.8781,-2.8781,-2.8781,-2.8765,-2.8784,-2.8784,-2.8821,-2.8821,-2.8821]},{"header":{"parameterUnit":"m.s-1","parameterCategory":1,"la1":30.2991,"la2":30.254,"lo1":-89.0895,"lo2":-89.0444,"dy":0.0017,"dx":0.0017,"nx":28,"ny":28,"refTime":"2025-03-29T03:00:00:Z","depth":0,"parameterNumber":3,"parameterNumberName":"V-component_of_WINDS"},"data":[0,0,0,0,0,0,0,0,0,0,0,0,0,0,0,0,0,0,0,0,0,0,0,0,0,0,0,0,0,0,0,0,0,0,0,0,0,0,0,0,0,0,0,0,0,0,0,0,0,0,0,0,0,0,0,0,0,0,5.3937,5.3938,0,5.403,5.4031,5.4032,5.4019,5.4017,5.4016,5.4014,5.4105,5.4109,5.4113,0,0,0,0,0,0,0,0,0,0,0,0,0,5.3748,5.3751,5.3937,5.3938,5.394,5.4029,5.4031,5.4032,5.4019,5.4017,5.4015,5.4014,5.4104,5.4108,5.4113,0,0,0,0,0,0,0,0,0,0,0,0,0,5.3834,5.3752,5.3937,5.3944,5.3946,5.4029,5.4031,5.4032,5.402,5.4017,5.4015,5.4013,5.4102,5.4108,5.4114,5.4195,0,0,5.4131,5.4134,0,0,0,0,0,0,0,0,5.3829,5.3841,5.3942,5.3944,5.3946,5.401,5.3997,5.4087,5.402,5.3991,5.4014,5.4012,5.4075,5.4083,5.4105,5.4199,5.4203,5.4132,5.4135,5.4138,5.4139,0,0,0,0,0,0,0,5.3823,5.3837,5.3974,5.3943,5.3946,5.3942,5.3952,5.4014,5.4045,5.3994,5.3993,5.4004,5.4076,5.41,5.4107,5.4204,5.4132,5.4137,5.414,5.4142,5.4371,5.4373,0,0,0,0,0,0,5.3816,5.3832,5.3971,5.3976,5.3881,5.3947,5.3958,5.3992,5.4044,5.405,5.4006,5.4003,5.4091,5.4101,5.411,5.421,5.4138,5.4143,5.4146,5.4368,5.4371,5.4374,0,0,0,0,0,0,5.3811,5.3828,5.3967,5.3904,5.3921,5.3953,5.3991,5.3995,5.4019,5.4054,5.4059,5.4025,5.409,5.4102,5.4175,5.4213,5.4146,5.4151,5.4365,5.4369,5.4373,5.441,0,0,0,0,0,0,5.3806,5.3827,5.3858,5.3905,5.3925,5.4031,5.3993,5.3998,5.4029,5.4027,5.4073,5.4078,5.4089,5.4166,5.418,5.422,5.4155,5.4362,5.4367,5.4372,5.4405,5.4415,5.4423,0,0,0,0,0,5.3799,5.3864,5.386,5.3877,5.3965,5.4033,5.4044,5.4056,5.4032,5.4064,5.4087,5.4077,5.4207,5.4174,5.4189,5.4231,5.4359,5.4366,5.4371,5.4402,5.4413,5.4422,0,0,0,0,0,0,5.3819,5.387,5.3866,5.3948,5.3986,5.403,5.4071,5.4067,5.4112,5.4107,5.4119,5.413,5.4203,5.4224,5.4187,5.4314,5.428,5.4289,5.4297,5.4308,5.4317,5.431,5.416,0,0,0,0,0,5.3834,5.3885,5.3926,5.3994,5.4014,5.4039,5.4069,5.4075,5.4115,5.4131,5.4158,5.4196,5.4246,5.4278,5.4325,5.4408,5.4419,5.4445,5.4453,5.446,5.4469,5.4515,5.4528,5.4394,5.4394,5.4393,0,0,5.3863,5.3897,5.3928,5.3999,5.403,5.4082,5.4053,5.4109,5.4149,5.4139,5.421,5.4231,5.4274,5.4353,5.4389,5.4373,5.4508,5.4468,5.4473,5.4478,5.4523,5.4536,5.4547,5.4398,5.4397,5.4396,0,0,5.3944,5.3974,5.4035,5.4067,5.4114,5.4131,5.4146,5.4191,5.4206,5.4277,5.4271,5.4317,5.4402,5.4434,5.4461,5.4555,5.4548,5.457,5.4615,5.4661,5.4671,5.4681,5.4716,5.4728,5.4578,5.4578,5.4578,0,5.3974,5.4054,5.4067,5.4125,5.4157,5.4152,5.4214,5.4243,5.4303,5.4324,5.4306,5.4414,5.4442,5.4529,5.4552,5.4574,5.4591,5.4565,5.4669,5.4679,5.4688,5.4721,5.4734,5.458,5.458,5.458,5.458,0,5.409,5.4145,5.4189,5.4249,5.4285,5.4345,5.4366,5.4401,5.4404,5.4423,5.4496,5.453,5.4585,5.4606,5.4609,5.4694,5.4683,5.4666,5.4633,5.4703,5.4735,5.4747,5.4584,5.4583,5.4582,5.4582,0,0,5.4185,5.4253,5.4269,5.4297,5.4349,5.4392,5.4451,5.4507,5.4537,5.4578,5.4629,5.4702,5.4688,5.4718,5.4725,5.4765,5.4839,5.4744,5.4745,5.4761,5.4936,5.4949,5.4964,5.4834,5.4837,5.4839,5.4933,0,5.4272,5.4379,5.4393,5.4487,5.454,5.4536,5.4588,5.4626,5.4645,5.4691,5.4711,5.4764,5.474,5.4759,5.4799,5.4822,5.4875,5.4815,5.4881,5.4884,5.4872,5.498,5.4994,5.5081,5.4945,5.4947,5.4949,0,5.4388,5.4435,5.4535,5.4582,5.4605,5.4651,5.4704,5.4749,5.4791,5.4802,5.4838,5.4839,5.49,5.4864,5.4949,5.4908,5.4936,5.4951,5.4955,5.4962,5.4921,5.4992,5.5109,5.5123,5.4968,5.4967,5.4965,0,5.445,5.4538,5.461,5.4633,5.4689,5.4723,5.4747,5.4788,5.4821,5.4866,5.4888,5.4939,5.4967,5.5007,5.5022,5.4994,5.5107,5.5071,5.5118,5.5118,5.5143,5.5141,5.5267,5.5159,5.5158,5.5158,5.5158,0,5.4546,5.4608,5.4639,5.4683,5.4752,5.4767,5.4835,5.4858,5.4894,5.4943,5.4942,5.4987,5.5004,5.5052,5.5064,5.5134,5.5146,5.5157,5.5159,5.5158,5.5157,5.5177,5.5172,5.5162,5.5161,5.516,5.516,0,5.4627,5.465,5.4729,5.4776,5.4789,5.4838,5.4879,5.4921,5.494,5.5002,5.5017,5.5046,5.5103,5.5122,5.519,5.5198,5.5279,5.5276,5.5266,5.5266,5.5313,5.5309,5.5457,5.5478,5.5354,5.5356,5.5357,0,5.4688,5.4736,5.4789,5.4822,5.4849,5.4902,5.4936,5.4953,5.4988,5.5041,5.5078,5.5134,5.5181,5.5271,5.5298,5.535,5.5349,5.5398,5.5357,5.5354,5.5351,5.5349,5.5354,5.5405,5.5407,5.5408,5.5409,0,5.4794,5.4803,5.4854,5.4909,5.495,5.4993,5.5035,5.5062,5.5084,5.5124,5.5183,5.522,5.529,5.5347,5.54,5.5424,5.5421,5.5421,5.5435,5.5434,5.5427,5.5433,5.5288,5.5418,5.5417,5.5416,5.5416,5.5415,5.4868,5.4911,5.4956,5.5012,5.5046,5.5085,5.5129,5.5154,5.5204,5.5264,5.527,5.5333,5.5375,5.5447,5.5475,5.5524,5.5511,5.553,5.5535,5.554,5.5545,5.5418,5.5534,5.5533,5.5533,5.5533,5.5533,0,5.4975,5.5004,5.5056,5.5116,5.516,5.5154,5.52,5.5238,5.5294,5.5334,5.5381,5.5449,5.5504,5.5536,5.5591,5.5624,5.5624,5.5638,5.5637,5.5643,5.5553,5.5536,5.5638,5.5638,5.5638,5.5638,5.5638,5.5638,5.5036,5.511,5.5125,5.5215,5.5243,5.5307,5.5334,5.5371,5.5403,5.548,5.5526,5.5547,5.5584,5.5642,5.5692,5.57,5.5721,5.5737,5.5743,5.5659,5.5649,5.5638,5.5623,5.5741,5.5741,5.5829,5.583,5.5831]}]]